Location: Gokavaram
(16.9752°N, 81.0696°E)
Time: 11:29:21
(UTC+00:00)

CZ-3 R/B - Pass Details

Date: 15 May 2026
Orbit: 564 x 9992 km, 28.2° (Epoch: 2 June)

Event Time Altitude Azimuth Distance (km) Brightness Sun altitude
Rises 21:49:29 0° 293° (WNW) 13,630 7.1 -29.6°
Reaches altitude 10° 22:04:38 10° 293° (WNW) 10,988 6.5 -26.6°
Maximum altitude 22:38:50 75° 212° (SSW) 2,526 3.4 -19.5°
Drops below altitude 10° 22:47:20 10° 127° (SE) 3,311 4.6 -17.7°
Sets 22:49:10 0° 125° (SE) 3,908 5.0 -17.3°
